CZ-6A DEB

Satellite information

Favourite Embed

Satellite Type and Status

DEBRISIN ORBIT

Key statistics

Satellite CZ-6A DEB at a glance.

Uptime

1076

Days in orbit

Revolutions

≈ 14.0

Per day

Orbit

SSO

Sun Synchronous Orbit

Inclination

99.0

Latest

Satellite identification and parameters

Extended collection of information and parameters for CZ-6A DEB.

Object identification

Identified? True

Debris? True

Object name: CZ-6A DEB

International designator: 2022-151AHF

Object number (NORAD): 56679

Object ID (CCSDS): 56679

Country: PEOPLES REPUBLIC OF CHINA (PRC)

Current information (Y/N): Y

RCS size: SMALL

Orbital parameters

Period: 102.636 minutes

Inclination: 98.959 deg

SMA: 7261.525 km

Apoapsis: 959.784 km

Periapsis: 806.995 km

RAAN: 293.5707 deg

Eccentricy: 0.01052042

Argument of periapsis: 16.519 deg

Mean anomaly: 343.9362 deg

Mean motion: 14.030109 rev/day

Mean motion (dot): 0.00001422 rev/day2

B* drag term: 0.00089894261 1/REarth

Two-line elements (TLE)

Creation date: Oct. 20, 2025, 10:26 a.m.

Reference frame: TEME

Reference center: EARTH

Epoch: Oct. 19, 2025, 10:53 p.m. UTC

TLE line 0: 0 CZ-6A DEB

TLE line 1: 1 56679U 22151AHF 25292.95364591 .00001422 00000-0 89894-3 0 9996

TLE line 2: 2 56679 98.9590 293.5707 0105204 16.5190 343.9362 14.03010900127459

Live tracking on map

Real-time ground track for satellite CZ-6A DEB.

In-orbit conjunctions

A list of the most updated potential collisions computed for object CZ-6A DEB.

Target Orbit TCA Probability of collision Miss distance Type
COSMOS 1275 DEB LEO 2025-06-24 05:21:07 0.0001487582 51.0 (m) DEBRIS
SL-16 DEB LEO 2024-11-16 14:23:47 0.0002470916 348.0 (m) DEBRIS

Associated space launch

Chinese satellite reported for atmospheric/ocean/environmental/spatial parameter research purposes, details TBD.

CZ-6A DEB was lifted into orbit during the mission ‘Long March 6A | Yunhai 3’, on board a Long March 6A space rocket.

The launch took place on Nov. 11, 2022, 10:52 p.m. from Launch Complex 9A.

For more information about the launch, click the button.

Launch to space Long March 6A | Yunhai 3
Long March 6A | Yunhai 3

Agency: N/A

Status: Launch Successful

Launch date: Nov. 11, 2022, 10:52 p.m. UTC

Rocket: Long March 6A

Launch pad: Launch Complex 9A

Location: Taiyuan Satellite Launch Center, People's Republic of China

...

Latest news about this satellite

There are no fresh news available about this satellite. Check back as we update our databases every day.


Newsletter sign-up

Weekly statistics, charts and insights to help you stay on top of the space industry.